Location: Unspecified
(0.0000°N, 0.0000°E)
Time: 13:41:43
(UTC+00:00)

Transit 4A - Pass Details

Date: 28 November 2019
Orbit: 870 x 975 km, 66.8° (Epoch: 08 December)

Event Time Altitude Azimuth Distance (km) Brightness Sun altitude
Rises 18:03:32 0° 198° (SSW) 3,668 11.7 -3.6°
Reaches altitude 10° 18:06:06 10° 198° (SSW) 2,719 11.0 -4.2°
Maximum altitude 18:12:30 85° 110° (ESE) 976 8.0 -5.7°
Drops below altitude 10° 18:18:47 10° 21° (NNE) 2,677 9.9 -7.2°
Sets 18:21:18 0° 21° (NNE) 3,608 10.6 -7.8°
